I1SXT-5 Weather Reports


Display with metric or nautical units.
time (UTC)temp
F
wind
direction
speed
MPH
gust
MPH
rain 1hr
in
rain 24hr
in
rain mn
in
humidity
%
barometer
mb
20260506215942 0 0.0 0.0 0.00 0.00 0.00 61 1012.3
20260506215441 0 0.0 0.0 0.00 0.00 0.00 61 1012.3
20260506214939 0 0.0 0.0 0.00 0.00 0.00 62 1012.4
20260506214438 0 0.0 0.0 0.00 0.00 0.00 62 1012.4
20260506213436 0 0.0 0.0 0.00 0.00 0.00 61 1012.3
20260506212934 0 0.0 0.0 0.00 0.00 0.00 62 1012.3
20260506212433 0 0.0 0.0 0.00 0.00 0.00 63 1012.3
20260506211932 0 0.0 0.0 0.00 0.00 0.00 64 1012.3
20260506211431 0 0.0 0.0 0.00 0.00 0.00 63 1012.2
20260506210930 0 0.0 0.0 0.00 0.00 0.00 63 1012.1
20260506210428 0 0.0 0.0 0.00 0.00 0.00 61 1012.1
20260506205927 0 0.0 0.0 0.00 0.00 0.00 61 1012.1
20260506205426 0 0.0 0.0 0.00 0.00 0.00 63 1012.1
20260506204925 0 0.0 0.0 0.00 0.00 0.00 63 1012.2
20260506204423 0 0.0 0.0 0.00 0.00 0.00 63 1012.2
20260506203922 0 0.0 0.0 0.00 0.00 0.00 63 1012.1
20260506203421 0 0.0 0.0 0.00 0.00 0.00 60 1012.0
20260506202418 0 0.0 0.0 0.00 0.00 0.00 59 1012.0
20260506201917 0 0.0 0.0 0.00 0.00 0.00 60 1012.0
20260506201416 0 0.0 0.0 0.00 0.00 0.00 60 1011.9
20260506200915 0 0.0 0.0 0.00 0.00 0.00 60 1011.8
20260506200413 0 0.0 0.0 0.00 0.00 0.00 60 1011.8
20260506195912 0 0.0 0.0 0.00 0.00 0.00 61 1011.7
20260506195411 0 0.0 0.0 0.00 0.00 0.00 60 1011.7
20260506194910 0 0.0 0.0 0.00 0.00 0.00 60 1011.6
20260506194408 0 0.0 0.0 0.00 0.00 0.00 58 1011.5
20260506193907 0 0.0 0.0 0.00 0.00 0.00 57 1011.3
20260506193406 0 0.0 0.0 0.00 0.00 0.00 55 1011.3
20260506192905 0 0.0 0.0 0.00 0.00 0.00 55 1011.2
20260506192404 0 0.0 0.0 0.00 0.00 0.00 55 1011.2
20260506191902 0 0.0 0.0 0.00 0.00 0.00 55 1011.1
20260506191401 0 0.0 0.0 0.00 0.00 0.00 55 1011.1
20260506190900 0 0.0 0.0 0.00 0.00 0.00 55 1011.0
20260506190359 0 0.0 0.0 0.00 0.00 0.00 55 1010.9
20260506185858 0 0.0 0.0 0.00 0.00 0.00 55 1010.8
20260506185356 0 0.0 0.0 0.00 0.00 0.00 55 1010.8
20260506184855 0 0.0 0.0 0.00 0.00 0.00 55 1010.8
20260506184354 0 0.0 0.0 0.00 0.00 0.00 54 1010.7
20260506183853 0 0.0 0.0 0.00 0.00 0.00 54 1010.7
20260506183351 0 0.0 0.0 0.00 0.00 0.00 54 1010.6
20260506182850 0 0.0 0.0 0.00 0.00 0.00 53 1010.6
20260506182349 0 0.0 0.0 0.00 0.00 0.00 53 1010.5
20260506181848 0 0.0 0.0 0.00 0.00 0.00 53 1010.4
20260506180845 0 0.0 0.0 0.00 0.00 0.00 52 1010.3
20260506180344 0 0.0 0.0 0.00 0.00 0.00 52 1010.3
20260506175342 0 0.0 0.0 0.00 0.00 0.00 52 1010.2
20260506174339 0 0.0 0.0 0.00 0.00 0.00 52 1010.1
20260506173838 0 0.0 0.0 0.00 0.00 0.00 53 1010.1
20260506173337 0 0.0 0.0 0.00 0.00 0.00 52 1010.0
20260506172835 0 0.0 0.0 0.00 0.00 0.00 50 1010.0
20260506172334 0 0.0 0.0 0.00 0.00 0.00 51 1010.0
20260506171833 0 0.0 0.0 0.00 0.00 0.00 49 1009.9
20260506171332 0 0.0 0.0 0.00 0.00 0.00 51 1009.9
20260506165828 0 0.0 0.0 0.00 0.00 0.00 50 1009.8
20260506165327 0 0.0 0.0 0.00 0.00 0.00 50 1009.8
20260506164825 0 0.0 0.0 0.00 0.00 0.00 51 1009.8
20260506164324 0 0.0 0.0 0.00 0.00 0.00 51 1009.8
20260506163823 0 0.0 0.0 0.00 0.00 0.00 52 1009.8
20260506163322 0 0.0 0.0 0.00 0.00 0.00 51 1009.8
20260506162821 0 0.0 0.0 0.00 0.00 0.00 51 1009.9
20260506162320 0 0.0 0.0 0.00 0.00 0.00 51 1009.9
20260506161818 0 0.0 0.0 0.00 0.00 0.00 51 1009.8
20260506161317 0 0.0 0.0 0.00 0.00 0.00 52 1009.8
20260506160816 0 0.0 0.0 0.00 0.00 0.00 53 1009.8
20260506160315 0 0.0 0.0 0.00 0.00 0.00 56 1009.8
20260506155813 0 0.0 0.0 0.00 0.00 0.00 55 1009.8
20260506155312 0 0.0 0.0 0.00 0.00 0.00 54 1009.8
20260506154811 0 0.0 0.0 0.00 0.00 0.00 54 1009.8
20260506154309 0 0.0 0.0 0.00 0.00 0.00 54 1009.7
20260506153808 0 0.0 0.0 0.00 0.00 0.00 54 1009.8
20260506153307 0 0.0 0.0 0.00 0.00 0.00 54 1009.7
20260506152806 0 0.0 0.0 0.00 0.00 0.00 54 1009.7
20260506152306 0 0.0 0.0 0.00 0.00 0.00 54 1009.6
20260506151803 0 0.0 0.0 0.00 0.00 0.00 53 1009.5
20260506151302 0 0.0 0.0 0.00 0.00 0.00 54 1009.5
20260506150801 0 0.0 0.0 0.00 0.00 0.00 50 1009.6
20260506150304 0 0.0 0.0 0.00 0.00 0.00 49 1009.6
20260506145758 0 0.0 0.0 0.00 0.00 0.00 51 1009.6
20260506145257 0 0.0 0.0 0.00 0.00 0.00 51 1009.6
20260506144756 0 0.0 0.0 0.00 0.00 0.00 54 1009.6
20260506144255 0 0.0 0.0 0.00 0.00 0.00 52 1009.6
20260506143753 0 0.0 0.0 0.00 0.00 0.00 52 1009.5
20260506143252 0 0.0 0.0 0.00 0.00 0.00 53 1009.5
20260506141748 0 0.0 0.0 0.00 0.00 0.00 51 1009.4
20260506141247 0 0.0 0.0 0.00 0.00 0.00 52 1009.4
20260506140746 0 0.0 0.0 0.00 0.00 0.00 53 1009.4
20260506140245 0 0.0 0.0 0.00 0.00 0.00 53 1009.5
20260506135743 0 0.0 0.0 0.00 0.00 0.00 51 1009.4
20260506135243 0 0.0 0.0 0.00 0.00 0.00 52 1009.4
20260506134741 0 0.0 0.0 0.00 0.00 0.00 52 1009.5
20260506134240 0 0.0 0.0 0.00 0.00 0.00 53 1009.6
20260506133739 0 0.0 0.0 0.00 0.00 0.00 55 1009.6
20260506133238 0 0.0 0.0 0.00 0.00 0.00 54 1009.7
20260506132736 0 0.0 0.0 0.00 0.00 0.00 56 1009.7
20260506132235 0 0.0 0.0 0.00 0.00 0.00 56 1009.8
20260506131734 0 0.0 0.0 0.00 0.00 0.00 57 1009.8
20260506131232 0 0.0 0.0 0.00 0.00 0.00 58 1009.8
20260506130731 0 0.0 0.0 0.00 0.00 0.00 57 1009.8
20260506130230 0 0.0 0.0 0.00 0.00 0.00 56 1009.8
20260506125729 0 0.0 0.0 0.00 0.00 0.00 56 1009.8
20260506124726 0 0.0 0.0 0.00 0.00 0.00 53 1009.8
20260506124225 0 0.0 0.0 0.00 0.00 0.00 55 1009.8
20260506123724 0 0.0 0.0 0.00 0.00 0.00 55 1009.8
20260506123223 0 0.0 0.0 0.00 0.00 0.00 53 1009.8
20260506122722 0 0.0 0.0 0.00 0.00 0.00 55 1009.8
20260506122220 0 0.0 0.0 0.00 0.00 0.00 56 1009.8
20260506121218 0 0.0 0.0 0.00 0.00 0.00 55 1009.7
20260506120717 0 0.0 0.0 0.00 0.00 0.00 54 1009.7
20260506120215 0 0.0 0.0 0.00 0.00 0.00 52 1009.7
20260506115714 0 0.0 0.0 0.00 0.00 0.00 54 1009.6
20260506115213 0 0.0 0.0 0.00 0.00 0.00 52 1009.6
20260506114712 0 0.0 0.0 0.00 0.00 0.00 53 1009.6
20260506114210 0 0.0 0.0 0.00 0.00 0.00 54 1009.6
20260506113709 0 0.0 0.0 0.00 0.00 0.00 54 1009.6
20260506112707 0 0.0 0.0 0.00 0.00 0.00 55 1009.6
20260506112205 0 0.0 0.0 0.00 0.00 0.00 55 1009.7
20260506111704 0 0.0 0.0 0.00 0.00 0.00 56 1009.7
20260506111203 0 0.0 0.0 0.00 0.00 0.00 56 1009.7
20260506110702 0 0.0 0.0 0.00 0.00 0.00 58 1009.7
20260506110201 0 0.0 0.0 0.00 0.00 0.00 60 1009.8
20260506105659 0 0.0 0.0 0.00 0.00 0.00 61 1009.8
20260506105158 0 0.0 0.0 0.00 0.00 0.00 61 1009.8
20260506104657 0 0.0 0.0 0.00 0.00 0.00 61 1009.7
20260506103654 0 0.0 0.0 0.00 0.00 0.00 61 1009.7
20260506103153 0 0.0 0.0 0.00 0.00 0.00 62 1009.7
20260506102652 0 0.0 0.0 0.00 0.00 0.00 63 1009.6
20260506102151 0 0.0 0.0 0.00 0.00 0.00 62 1009.6
20260506101650 0 0.0 0.0 0.00 0.00 0.00 61 1009.5
20260506101148 0 0.0 0.0 0.00 0.00 0.00 62 1009.5
20260506100647 0 0.0 0.0 0.00 0.00 0.00 62 1009.4
20260506100146 0 0.0 0.0 0.00 0.00 0.00 63 1009.3
20260506095645 0 0.0 0.0 0.00 0.00 0.00 66 1009.2
20260506095143 0 0.0 0.0 0.00 0.00 0.00 68 1009.1
20260506094642 0 0.0 0.0 0.00 0.00 0.00 67 1009.0
20260506093640 0 0.0 0.0 0.00 0.00 0.00 67 1009.0
20260506093138 0 0.0 0.0 0.00 0.00 0.00 66 1009.1
20260506092637 0 0.0 0.0 0.00 0.00 0.00 67 1009.0
20260506091635 0 0.0 0.0 0.00 0.00 0.00 68 1008.8
20260506091134 0 0.0 0.0 0.00 0.00 0.00 68 1008.8
20260506090632 0 0.0 0.0 0.00 0.00 0.00 68 1008.8
20260506090131 0 0.0 0.0 0.00 0.00 0.00 68 1008.8
20260506085630 0 0.0 0.0 0.00 0.00 0.00 68 1008.8
20260506085129 0 0.0 0.0 0.00 0.00 0.00 69 1008.7
20260506084627 0 0.0 0.0 0.00 0.00 0.00 70 1008.7
20260506084126 0 0.0 0.0 0.00 0.00 0.00 70 1008.7
20260506083625 0 0.0 0.0 0.00 0.00 0.00 69 1008.7
20260506083124 0 0.0 0.0 0.00 0.00 0.00 68 1008.5
20260506081620 0 0.0 0.0 0.00 0.00 0.00 68 1008.3
20260506081119 0 0.0 0.0 0.00 0.00 0.00 68 1008.2
20260506080618 0 0.0 0.0 0.00 0.00 0.00 68 1008.1
20260506080116 0 0.0 0.0 0.00 0.00 0.00 69 1008.2
20260506073109 0 0.0 0.0 0.00 0.00 0.00 69 1008.5
20260506072608 0 0.0 0.0 0.00 0.00 0.00 70 1008.4
20260506072107 0 0.0 0.0 0.00 0.00 0.00 69 1008.4
20260506071605 0 0.0 0.0 0.00 0.00 0.00 68 1008.2
20260506071104 0 0.0 0.0 0.00 0.00 0.00 67 1008.3
20260506070603 0 0.0 0.0 0.00 0.00 0.00 67 1008.2
20260506062052 0 0.0 0.0 0.00 0.00 0.00 74 1008.0
20260506061550 0 0.0 0.0 0.00 0.00 0.00 73 1008.1
20260506061049 0 0.0 0.0 0.00 0.00 0.00 73 1008.2
20260506060548 0 0.0 0.0 0.00 0.00 0.00 73 1008.2
20260506050533 0 0.0 0.0 0.00 0.00 0.00 76 1008.3
20260506045030 0 0.0 0.0 0.00 0.00 0.00 75 1008.4
20260506044528 0 0.0 0.0 0.00 0.00 0.00 75 1008.4
20260506044027 0 0.0 0.0 0.00 0.00 0.00 75 1008.5
20260506043526 0 0.0 0.0 0.00 0.00 0.00 76 1008.4
20260506043025 0 0.0 0.0 0.00 0.00 0.00 77 1008.2
20260506042524 0 0.0 0.0 0.00 0.00 0.00 74 1009.0
20260506042022 0 0.0 0.0 0.00 0.00 0.00 74 1008.7
20260506041521 0 0.0 0.0 0.00 0.00 0.00 74 1008.4
20260506041020 0 0.0 0.0 0.00 0.00 0.00 75 1008.5
20260506040519 0 0.0 0.0 0.00 0.00 0.00 75 1008.7
20260506040017 0 0.0 0.0 0.00 0.00 0.00 75 1008.7
20260506035516 0 0.0 0.0 0.00 0.00 0.00 75 1008.7
20260506035015 0 0.0 0.0 0.00 0.00 0.00 75 1009.0
20260506034514 0 0.0 0.0 0.00 0.00 0.00 76 1009.1
20260506033511 0 0.0 0.0 0.00 0.00 0.00 75 1009.0
20260506033010 0 0.0 0.0 0.00 0.00 0.00 75 1008.9
20260506032509 0 0.0 0.0 0.00 0.00 0.00 75 1009.1
20260506032007 0 0.0 0.0 0.00 0.00 0.00 76 1009.1
20260506031506 0 0.0 0.0 0.00 0.00 0.00 76 1009.1
20260506030504 0 0.0 0.0 0.00 0.00 0.00 80 1009.0
20260506025502 0 0.0 0.0 0.00 0.00 0.00 78 1008.8
20260506025000 0 0.0 0.0 0.00 0.00 0.00 76 1009.3
20260506024459 0 0.0 0.0 0.00 0.00 0.00 77 1009.0
20260506023958 0 0.0 0.0 0.00 0.00 0.00 75 1008.4
20260506022955 0 0.0 0.0 0.00 0.00 0.00 74 1008.2
20260506022454 0 0.0 0.0 0.00 0.00 0.00 75 1008.2
20260506021953 0 0.0 0.0 0.00 0.00 0.00 75 1008.5
20260506021452 0 0.0 0.0 0.00 0.00 0.00 76 1008.7
20260506020950 0 0.0 0.0 0.00 0.00 0.00 75 1008.8
20260506020449 0 0.0 0.0 0.00 0.00 0.00 74 1009.1
20260506015948 0 0.0 0.0 0.00 0.00 0.00 72 1009.1
20260506015446 0 0.0 0.0 0.00 0.00 0.00 70 1009.1
20260506014945 0 0.0 0.0 0.00 0.00 0.00 69 1009.3
20260506014444 0 0.0 0.0 0.00 0.00 0.00 68 1009.5
20260506013943 0 0.0 0.0 0.00 0.00 0.00 68 1009.2
20260506013442 0 0.0 0.0 0.00 0.00 0.00 68 1009.3
20260506012940 0 0.0 0.0 0.00 0.00 0.00 68 1009.5
20260506012439 0 0.0 0.0 0.00 0.00 0.00 69 1009.8
20260506011938 0 0.0 0.0 0.00 0.00 0.00 70 1009.6
20260506011437 0 0.0 0.0 0.00 0.00 0.00 69 1009.6
20260506010935 0 0.0 0.0 0.00 0.00 0.00 68 1009.8
20260506010434 0 0.0 0.0 0.00 0.00 0.00 68 1009.9
20260506005432 0 0.0 0.0 0.00 0.00 0.00 69 1009.9
20260506004931 0 0.0 0.0 0.00 0.00 0.00 69 1009.9
20260506004429 0 0.0 0.0 0.00 0.00 0.00 69 1010.0
20260506003928 0 0.0 0.0 0.00 0.00 0.00 69 1010.2
20260506003427 0 0.0 0.0 0.00 0.00 0.00 70 1010.3
20260506002926 0 0.0 0.0 0.00 0.00 0.00 71 1010.3
20260506002425 0 0.0 0.0 0.00 0.00 0.00 71 1010.2
20260506001923 0 0.0 0.0 0.00 0.00 0.00 71 1010.2
20260506001422 0 0.0 0.0 0.00 0.00 0.00 69 1010.5
20260506000921 0 0.0 0.0 0.00 0.00 0.00 67 1010.4
20260506000419 0 0.0 0.0 0.00 0.00 0.00 68 1010.4
20260505235918 0 0.0 0.0 0.00 0.00 0.00 67 1010.4
20260505235417 0 0.0 0.0 0.00 0.00 0.00 63 1010.7
20260505234916 0 0.0 0.0 0.00 0.00 0.00 63 1010.3
20260505234415 0 0.0 0.0 0.00 0.00 0.00 62 1010.5
20260505233412 0 0.0 0.0 0.00 0.00 0.00 61 1010.5
20260505232911 0 0.0 0.0 0.00 0.00 0.00 61 1010.6
20260505232410 0 0.0 0.0 0.00 0.00 0.00 61 1010.8
20260505231407 0 0.0 0.0 0.00 0.00 0.00 62 1010.9
20260505230405 0 0.0 0.0 0.00 0.00 0.00 63 1011.2
20260505225904 0 0.0 0.0 0.00 0.00 0.00 62 1011.2
20260505225402 0 0.0 0.0 0.00 0.00 0.00 63 1011.2
20260505224901 0 0.0 0.0 0.00 0.00 0.00 62 1011.3
20260505224400 0 0.0 0.0 0.00 0.00 0.00 62 1011.5
20260505223858 0 0.0 0.0 0.00 0.00 0.00 62 1011.6
20260505222355 0 0.0 0.0 0.00 0.00 0.00 63 1011.8
20260505221854 0 0.0 0.0 0.00 0.00 0.00 65 1011.8
20260505221352 0 0.0 0.0 0.00 0.00 0.00 65 1011.8
20260505220350 0 0.0 0.0 0.00 0.00 0.00 62 1011.7